User: anonymous   Login
Location: Les Thiberg�res
(47.8554°N, 1.0978°W)
Time: 21:56:06
(UTC+00:00)
Language:

Cosmos 2221 - Orbit

View from above orbital plane
View from above orbital plane
View from above satellite
View from above satellite

Ground track
Ground track

The orbit data is extracted from the following two-line orbital elements,

1 22236U 92080A   20158.39528606  .00000141  00000-0  12678-4 0  9993
2 22236  82.5074 114.1051 0016823   4.1678 355.9676 14.87924050488676
Epoch (UTC): 06 June 2020 09:29:12
Eccentricity: 0.0016823
inclination: 82.5074°
perigee height: 592 km
apogee height: 616 km
right ascension of ascending node: 114.1051°
argument of perigee: 4.1678°
revolutions per day: 14.87924050
mean anomaly at epoch: 355.9676°
orbit number at epoch: 48867

The dashed part of the orbit path shows where the satellite is in the earth's shadow,  

DLR